Temperature
19 20 20 21 21 19 18 17 17 18 18 18 18 17 19 20 21 21 22 23 23 23 23 23 23 22 22 21 21 20 20 19 19 18 18 17 17 17 16 16 16 15 15 15
21 21 20 20 21 20 19 19 18 18 18 18 17 18 18 19 19 20 21 22 23 23 23 23 23 23 22 22 21 21 20 20 19 19 18 18 17 17 17 16 16 16 15 15
19 19 21 20 20 20 19 19 18 18 18 17 16 16 17 17 18 19 20 21 22 22 23 22 23 22 22 21 21 21 20 20 19 19 18 18 18 17 17 17 16 16 16 15
17 19 20 19 19 19 18 18 17 16 16 16 16 16 16 17 18 19 19 20 21 22 22 22 22 22 22 21 21 20 20 20 19 19 19 18 18 17 17 17 16 16 16 15
15 18 18 19 18 18 18 18 17 16 16 16 17 17 16 16 17 18 19 19 20 21 21 21 22 21 21 21 20 20 20 19 19 19 18 18 18 17 17 17 16 16 16 15
15 18 18 19 18 18 18 18 17 16 15 16 16 16 15 16 17 18 19 19 20 20 20 21 20 20 20 20 20 19 19 19 19 18 18 18 17 17 17 16 16 16 15 15
15 16 17 18 17 18 18 18 17 16 16 16 14 14 15 16 17 17 18 18 19 19 19 19 19 19 19 19 19 19 18 18 18 17 17 17 17 16 16 16 15 15 15 15
14 16 17 17 17 17 16 16 16 16 16 16 15 15 15 16 16 17 17 18 18 18 18 18 18 18 18 17 17 17 17 17 17 17 16 16 16 15 15 15 15 15 14 14
14 16 16 16 16 17 17 16 16 16 16 16 15 15 15 15 16 16 16 16 17 17 16 16 16 16 16 16 16 16 16 16 16 15 15 15 15 14 14 14 14 14 13 13
13 14 15 16 16 16 17 17 17 16 16 16 15 15 15 15 15 15 15 15 15 15 15 15 14 15 15 14 14 15 14 14 14 14 14 13 13 13 13 13 13 12 12 12
14 14 15 16 16 16 17 17 16 16 16 16 15 15 15 14 14 14 14 14 14 14 14 13 13 13 13 13 13 13 13 13 13 13 12 12 12 12 12 12 11 11 11 11
15 15 14 15 16 16 16 16 16 16 15 15 15 15 14 14 14 14 13 13 13 13 13 12 12 12 12 12 12 12 12 12 12 11 11 11 11 11 11 11 11 10 10 10
16 16 16 16 16 16 16 16 15 15 15 15 14 14 14 14 13 13 13 13 12 12 12 12 11 11 11 11 11 11 11 11 11 11 10 10 10 10 10 10 10 10 10 10
15 15 15 15 15 15 15 15 15 15 14 14 14 14 13 13 13 12 12 12 11 11 11 11 11 11 11 10 10 10 10 10 10 10 10 9 9 9 9 9 9 9 9 10
15 15 15 14 14 14 14 14 14 14 14 13 13 13 13 13 12 12 11 11 11 11 11 10 10 10 10 10 10 10 10 10 9 9 9 9 9 8 8 8 8 8 8 9
14 14 14 14 13 13 13 14 14 13 13 13 13 13 12 12 12 11 11 11 11 11 10 10 10 10 10 10 10 10 9 9 9 9 9 8 8 8 7 7 7 7 7 7
13 12 13 13 13 13 13 13 13 13 13 12 12 12 12 12 11 11 11 11 11 11 10 10 10 10 10 10 9 9 9 9 8 8 8 8 7 7 7 6 6 6 6 6
13 13 13 12 12 12 12 12 12 12 12 12 12 12 11 11 11 11 11 11 11 11 10 10 10 10 10 9 9 9 8 8 8 7 7 7 6 6 6 5 5 5 5 5
12 12 12 12 12 12 12 12 12 12 12 12 11 11 11 11 11 11 11 11 10 10 10 10 10 9 9 9 8 8 7 7 7 6 6 6 5 5 5 4 4 4 4 4
12 12 12 12 12 12 12 12 11 12 11 11 11 11 11 11 11 11 10 10 10 10 10 9 9 9 8 8 7 7 7 6 6 5 5 4 4 4 4 4 4 4 4 4
11 11 11 11 11 11 11 11 11 11 11 11 11 11 11 11 11 10 10 10 10 9 9 9 8 8 7 7 6 6 5 5 4 4 4 3 3 3 3 3 3 3 3 3
11 11 11 11 11 11 11 11 11 11 11 11 11 11 11 10 10 10 10 9 9 9 8 8 7 7 6 6 5 5 4 4 3 3 3 2 2 2 2 2 2 2 2 2
11 11 11 11 11 11 11 11 11 11 11 11 11 10 10 10 10 9 9 9 8 8 7 7 6 6 5 5 4 4 3 3 2 2 2 1 1 1 1 1 1 2 2 2
11 11 11 11 11 11 11 11 11 10 10 10 10 10 9 9 9 9 8 8 7 7 6 6 5 5 4 3 3 3 2 2 1 1 1 1 1 1 1 1 1 1 1 1
10 10 10 10 10 10 10 10 10 10 10 9 9 9 9 8 8 8 7 7 6 6 5 5 4 3 3 2 2 2 1 1 1 0 0 0 0 0 0 0 0 0 1 1
10 10 10 10 10 10 9 9 9 9 9 9 8 8 8 7 7 7 6 6 5 5 4 3 3 2 2 1 1 1 0 0 0 -0 -0 -0 -0 -0 -0 -0 0 0 0 0
9 9 9 9 9 9 9 8 8 8 8 8 7 7 7 6 6 6 5 5 4 4 3 2 2 1 1 1 0 0 -0 -0 -1 -1 -1 -1 -1 -1 -0 -0 -0 -0 0 0
Wind_Speed
6 5 3 5 6 7 8 8 9 8 8 9 6 7 7 6 6 6 7 7 10 11 11 10 10 11 12 12 11 11 12 12 13 11 10 9 9 9 9 9 9 8 8 8
3 2 4 4 6 6 7 5 7 6 8 5 4 3 2 2 2 3 5 6 7 8 9 11 12 12 11 11 11 11 13 14 11 10 10 10 10 9 9 9 9 8 9 9
3 3 1 5 6 6 5 5 6 8 6 2 2 3 3 3 3 1 3 3 4 5 7 9 10 10 11 11 9 10 11 10 9 10 10 11 10 9 10 10 9 9 10 9
1 2 5 7 2 3 4 3 4 4 3 2 2 1 3 5 4 4 4 3 1 2 3 5 5 6 7 7 8 9 9 9 8 9 10 9 9 10 10 8 8 9 10 10
3 2 6 6 3 3 3 4 4 5 3 1 1 2 5 7 6 5 5 4 2 1 1 1 2 3 5 5 6 7 9 9 9 10 10 9 10 11 9 8 9 9 8 10
4 3 6 7 2 2 3 4 4 3 2 1 3 2 2 7 7 8 8 7 7 6 7 6 3 4 5 4 4 6 7 7 6 7 8 9 10 9 7 8 10 9 10 10
4 4 8 5 1 4 3 6 1 3 2 2 3 2 0 4 7 8 9 10 10 11 11 8 5 6 4 2 2 3 2 2 3 5 7 8 7 6 6 7 7 8 10 10
4 3 7 2 4 6 6 1 2 3 3 5 6 5 5 7 8 10 10 11 12 12 11 9 8 6 5 2 2 2 2 1 1 2 4 4 4 5 5 6 7 8 8 10
8 7 5 2 4 2 3 3 2 3 5 8 8 7 7 8 9 10 10 10 10 11 11 9 8 7 6 4 4 3 3 3 2 2 1 1 2 3 3 4 6 7 7 9
4 7 5 4 3 2 4 4 6 7 8 9 10 8 8 8 8 9 10 10 10 11 11 9 8 8 6 5 5 5 5 4 3 3 2 2 2 2 3 4 5 6 7 9
5 6 3 3 3 5 6 9 11 9 8 9 11 9 7 7 7 7 7 7 8 8 8 7 7 8 7 6 5 6 5 4 4 3 3 3 3 3 4 5 6 7 7 8
7 7 5 4 4 7 9 10 11 12 9 8 9 9 8 7 5 6 6 6 7 7 6 5 6 6 7 6 5 5 5 5 4 3 3 3 4 5 6 7 11 12 13 12
4 1 3 4 5 6 8 9 10 11 11 9 7 7 7 6 4 5 5 5 5 4 3 4 5 5 6 6 5 5 4 4 3 4 4 4 4 5 7 8 10 12 13 14
2 4 5 4 6 8 11 11 11 10 9 8 7 6 6 6 4 5 3 2 1 2 3 3 4 5 5 4 4 4 4 4 4 4 4 4 5 6 6 7 9 9 10 13
6 6 7 9 10 10 9 10 11 9 8 7 6 6 6 5 4 2 0 0 1 2 3 3 4 5 5 4 3 4 4 4 4 5 5 5 6 6 7 8 8 9 10 11
10 12 13 13 12 10 9 9 9 7 6 5 4 4 3 3 2 0 1 1 2 3 4 4 5 5 5 4 4 4 4 7 7 5 6 7 7 7 8 8 9 9 10 10
10 9 10 11 10 9 8 6 6 5 4 3 2 2 2 2 1 3 4 3 2 3 4 4 5 5 5 4 4 4 5 7 9 7 7 7 8 8 8 9 9 9 10 11
11 10 10 10 8 8 6 5 5 4 2 1 1 1 1 0 2 4 5 4 4 4 4 4 4 4 4 5 4 4 5 6 6 7 7 8 8 8 9 9 10 11 10 10
12 12 11 10 8 6 4 2 1 0 1 1 0 1 2 3 3 4 4 3 4 5 5 5 6 4 5 6 6 4 5 7 7 7 8 9 9 9 9 9 10 10 10 10
11 10 9 7 4 3 2 0 1 2 2 1 1 2 3 4 3 3 2 3 3 4 4 4 4 4 5 6 7 5 6 7 8 8 9 9 9 9 9 10 10 10 10 9
8 7 5 3 1 1 1 2 2 3 3 1 2 3 4 4 4 2 2 3 4 3 2 4 4 4 5 6 7 6 7 7 8 8 9 9 9 9 9 10 10 10 9 9
3 2 1 1 2 3 3 3 2 3 3 2 2 2 2 4 4 3 2 2 3 3 3 3 4 6 7 7 6 6 7 8 8 8 8 8 9 9 9 10 10 10 9 10
1 2 2 3 3 4 4 3 2 2 2 2 2 2 2 3 2 2 3 2 2 4 4 4 6 8 9 6 6 7 7 8 8 8 8 8 9 9 9 10 9 10 10 10
2 3 4 3 2 2 3 3 3 2 1 2 2 2 1 1 2 1 0 2 4 4 4 5 8 9 8 6 6 7 7 8 8 8 9 8 9 9 9 9 9 9 9 11
3 3 3 2 2 2 3 2 2 2 2 2 3 3 2 0 1 1 2 3 5 5 4 6 9 9 7 6 6 7 7 7 8 8 8 8 9 9 9 9 9 9 9 9
2 2 2 2 2 2 2 1 1 2 2 2 3 3 2 2 3 2 3 4 5 6 5 5 5 6 6 6 7 7 7 8 8 8 9 9 9 9 9 10 11 10 9 9
3 3 2 3 3 2 2 2 2 2 2 2 2 1 1 2 2 3 4 4 4 4 4 4 5 5 5 6 6 7 7 7 8 8 8 8 8 9 9 11 9 9 9 9
Wind_Direction
231 233 193 215 217 185 191 196 197 231 234 262 273 272 268 254 232 223 226 219 213 210 209 202 199 198 197 196 191 185 185 195 206 205 201 203 206 210 212 212 217 218 221 228
263 246 213 248 252 210 213 213 223 247 262 269 293 300 303 295 198 217 237 229 218 211 206 202 201 200 197 197 192 183 191 202 204 197 199 206 211 212 213 217 219 218 222 228
251 314 34 260 242 210 210 210 199 221 246 323 343 11 2 14 37 340 282 267 236 214 211 209 203 196 197 199 181 184 199 203 198 198 206 213 214 212 217 220 219 222 228 229
164 66 237 250 276 191 194 235 222 239 262 262 200 121 52 34 30 8 351 336 285 234 225 217 196 189 185 165 172 190 203 209 205 202 212 213 211 218 222 218 218 226 231 232
127 199 274 286 236 168 171 260 220 222 246 250 152 81 42 20 17 15 359 344 331 360 79 104 151 162 145 156 171 190 208 214 211 207 211 210 215 222 221 218 224 226 230 230
135 177 243 253 210 143 107 279 237 199 228 356 49 73 357 353 8 18 24 26 29 40 50 52 61 111 127 155 174 210 221 223 212 203 209 216 222 224 220 220 231 232 237 235
164 219 261 255 169 119 166 250 258 149 139 82 92 139 268 11 32 32 36 40 46 52 50 40 52 94 101 104 209 233 212 198 196 204 212 220 225 225 224 227 235 238 245 246
151 204 260 231 141 177 217 277 94 106 108 106 107 89 65 51 46 44 43 43 50 55 47 33 35 64 70 30 340 45 92 140 214 221 231 229 224 236 234 232 242 250 253 260
190 215 238 225 209 212 163 137 124 120 116 116 102 84 70 59 54 52 50 48 52 60 54 39 31 49 55 7 9 39 49 38 18 13 317 278 241 248 254 242 247 257 258 264
241 261 246 240 220 169 147 130 120 117 117 114 103 88 78 69 60 57 53 51 53 59 55 39 28 38 40 23 34 54 49 33 30 28 1 333 306 277 262 259 259 263 265 267
252 269 279 254 186 150 123 112 108 104 106 113 108 99 93 83 70 65 63 59 63 68 63 43 30 31 25 25 48 57 48 36 26 17 353 336 322 287 272 260 256 262 267 267
228 230 192 210 164 142 129 125 125 118 104 100 106 109 100 89 79 74 69 65 65 61 56 37 30 25 16 18 40 51 37 20 9 356 346 339 330 322 293 278 286 278 267 265
235 153 141 120 108 108 115 116 115 111 111 106 98 104 105 98 90 85 77 71 71 63 49 29 22 13 0 6 29 44 33 5 350 346 340 334 329 323 317 312 298 290 284 280
131 111 97 95 104 102 106 104 99 95 97 103 105 103 101 97 90 86 81 77 81 56 26 12 6 350 340 352 12 15 4 351 343 327 322 317 312 307 303 305 310 309 302 295
47 83 111 105 97 97 101 105 101 97 97 94 98 103 106 108 111 120 184 342 34 20 357 352 345 325 326 342 352 346 339 327 320 313 310 306 304 304 303 302 301 302 305 305
76 81 91 92 91 89 91 98 103 103 104 102 104 109 121 130 135 251 312 345 6 330 318 317 308 304 319 331 331 325 319 320 323 314 312 312 309 308 307 307 305 305 304 306
86 83 86 88 85 80 76 83 96 101 98 101 118 124 106 81 22 330 319 320 306 288 288 286 289 305 324 329 325 318 316 318 322 319 313 309 308 306 305 304 304 304 303 304
86 89 92 95 95 89 80 74 80 89 111 184 162 124 119 250 284 294 306 321 326 319 311 303 306 321 335 336 330 319 315 314 316 314 313 312 309 307 307 306 306 305 306 308
83 86 87 87 87 91 92 87 79 307 282 277 255 262 271 272 278 294 314 323 317 309 311 327 341 347 337 336 340 327 324 322 321 317 315 312 312 311 310 309 308 309 309 309
82 84 86 89 93 102 106 285 290 301 302 277 266 295 301 299 303 309 315 296 276 269 293 328 347 349 344 342 349 339 333 329 324 321 319 318 316 314 314 313 312 312 313 313
77 80 84 84 53 352 318 310 307 303 307 293 252 260 274 292 305 303 295 299 306 328 351 359 6 0 356 353 351 346 340 334 329 325 323 322 321 320 318 318 317 318 318 317
77 84 107 279 309 315 321 324 311 299 306 308 298 283 289 301 311 315 284 264 303 356 15 17 15 13 8 2 356 349 344 340 335 332 330 329 327 324 324 324 322 321 320 318
320 291 292 299 300 303 320 332 337 333 321 312 308 298 283 282 286 291 309 334 5 31 39 31 23 20 15 8 358 353 351 347 343 339 335 331 329 327 326 325 324 323 323 323
293 303 297 297 304 310 314 319 337 342 334 326 320 306 288 314 350 359 286 25 46 58 50 37 33 27 21 15 8 4 359 353 347 341 338 335 334 333 332 331 331 330 329 328
310 308 312 315 303 280 276 297 331 356 5 360 355 358 1 32 164 45 56 62 67 62 53 41 37 31 27 19 12 4 357 352 348 343 341 340 339 338 338 338 339 338 339 338
333 321 312 291 276 284 294 296 299 307 324 336 341 352 14 44 72 79 77 73 70 66 57 43 33 27 21 15 9 3 357 351 350 350 348 346 344 345 344 344 344 345 342 342
8 6 358 357 352 345 329 308 297 302 302 296 305 323 16 55 72 82 82 78 73 64 55 44 33 25 21 16 9 4 1 358 357 355 353 351 351 350 350 349 349 348 348 347
Height
1488 1485 1486 1487 1488 1492 1497 1498 1504 1496 1493 1482 1478 1476 1474 1473 1474 1476 1477 1479 1481 1484 1487 1490 1493 1497 1500 1504 1508 1511 1514 1516 1518 1521 1523 1524 1526 1527 1528 1529 1529 1529 1529 1529
1486 1482 1484 1486 1483 1485 1488 1488 1490 1489 1486 1477 1476 1474 1473 1471 1472 1473 1474 1475 1476 1479 1481 1484 1488 1491 1495 1499 1503 1506 1509 1511 1514 1517 1518 1520 1521 1523 1524 1525 1525 1525 1525 1525
1496 1488 1485 1491 1482 1481 1482 1480 1483 1486 1481 1477 1476 1474 1473 1472 1472 1472 1473 1473 1474 1476 1478 1481 1484 1487 1491 1494 1498 1501 1504 1507 1510 1512 1514 1515 1517 1518 1519 1520 1521 1521 1521 1521
1498 1493 1500 1487 1476 1475 1478 1478 1478 1478 1476 1476 1475 1475 1475 1474 1473 1472 1472 1472 1472 1474 1476 1478 1481 1484 1488 1491 1495 1497 1500 1502 1505 1507 1509 1511 1513 1513 1514 1515 1516 1516 1516 1516
1503 1502 1495 1482 1475 1476 1478 1478 1474 1475 1474 1473 1473 1474 1476 1475 1474 1473 1472 1472 1472 1472 1474 1477 1479 1482 1485 1488 1491 1493 1495 1498 1500 1502 1504 1506 1507 1508 1509 1510 1510 1510 1510 1509
1501 1499 1500 1482 1473 1473 1477 1480 1472 1472 1473 1473 1473 1478 1480 1477 1475 1474 1473 1472 1472 1472 1474 1475 1478 1481 1483 1485 1487 1489 1491 1493 1496 1497 1499 1500 1501 1502 1503 1504 1503 1503 1503 1502
1499 1499 1489 1474 1472 1474 1486 1481 1471 1471 1472 1473 1475 1479 1480 1477 1476 1475 1474 1473 1473 1473 1474 1476 1478 1480 1481 1483 1484 1486 1488 1490 1491 1492 1493 1494 1495 1496 1497 1497 1496 1496 1496 1495
1500 1499 1492 1471 1471 1475 1475 1471 1471 1471 1473 1474 1475 1478 1478 1478 1477 1476 1476 1475 1475 1475 1476 1478 1479 1479 1480 1482 1483 1484 1485 1486 1487 1487 1488 1488 1489 1489 1490 1489 1489 1488 1487 1487
1485 1482 1471 1469 1469 1469 1470 1470 1471 1472 1473 1474 1476 1478 1480 1480 1479 1479 1478 1478 1477 1478 1479 1480 1481 1480 1480 1481 1481 1482 1482 1482 1482 1482 1483 1483 1483 1483 1482 1482 1481 1480 1479 1478
1477 1470 1467 1466 1466 1467 1468 1469 1471 1473 1475 1476 1478 1480 1482 1483 1482 1482 1481 1481 1481 1481 1482 1482 1482 1481 1481 1481 1480 1480 1479 1479 1479 1479 1479 1479 1478 1477 1476 1475 1474 1473 1471 1470
1473 1467 1465 1464 1465 1466 1468 1469 1472 1475 1477 1478 1480 1483 1484 1485 1485 1485 1485 1485 1485 1485 1485 1485 1484 1483 1482 1481 1480 1479 1478 1478 1477 1477 1476 1475 1474 1473 1471 1470 1469 1467 1465 1463
1468 1462 1463 1463 1464 1466 1468 1470 1473 1476 1479 1481 1483 1485 1486 1487 1488 1488 1488 1488 1488 1487 1487 1486 1485 1484 1483 1482 1480 1479 1478 1477 1476 1475 1473 1471 1470 1468 1466 1465 1463 1461 1459 1456
1461 1460 1461 1462 1465 1467 1470 1472 1475 1478 1480 1483 1486 1488 1489 1489 1490 1490 1490 1490 1489 1489 1488 1487 1486 1485 1483 1482 1480 1479 1477 1476 1474 1472 1470 1468 1465 1463 1460 1458 1457 1454 1452 1449
1459 1461 1462 1464 1466 1470 1472 1475 1478 1481 1484 1486 1488 1490 1490 1491 1491 1491 1491 1491 1490 1489 1488 1487 1486 1484 1483 1482 1480 1478 1476 1474 1472 1470 1467 1464 1462 1458 1455 1451 1448 1445 1443 1440
1460 1461 1463 1465 1469 1472 1476 1478 1481 1484 1486 1488 1490 1491 1492 1492 1492 1492 1492 1491 1490 1489 1488 1487 1486 1484 1483 1481 1479 1477 1474 1472 1469 1466 1463 1460 1457 1454 1450 1446 1442 1438 1435 1432
1464 1465 1467 1470 1473 1477 1480 1482 1484 1487 1489 1490 1491 1492 1493 1492 1492 1492 1492 1491 1490 1488 1487 1486 1485 1483 1481 1479 1477 1474 1472 1469 1466 1462 1459 1455 1451 1448 1444 1440 1436 1432 1429 1425
1468 1471 1473 1476 1479 1482 1485 1487 1488 1490 1491 1492 1493 1493 1493 1493 1492 1492 1491 1490 1489 1487 1486 1485 1483 1481 1479 1476 1474 1471 1468 1465 1461 1458 1454 1450 1446 1442 1438 1434 1430 1426 1423 1419
1475 1477 1479 1482 1484 1487 1489 1490 1492 1492 1493 1493 1493 1493 1492 1492 1491 1491 1490 1488 1487 1486 1484 1482 1480 1478 1476 1473 1470 1467 1463 1460 1456 1452 1448 1444 1440 1436 1432 1428 1424 1420 1416 1412
1480 1482 1484 1486 1489 1490 1492 1493 1493 1494 1494 1493 1493 1492 1492 1491 1490 1489 1488 1486 1485 1483 1482 1480 1477 1475 1472 1469 1466 1462 1458 1454 1450 1446 1442 1438 1434 1430 1426 1422 1418 1414 1410 1406
1486 1488 1489 1491 1492 1493 1493 1494 1494 1493 1493 1492 1492 1491 1490 1490 1488 1487 1486 1484 1483 1481 1478 1476 1474 1471 1468 1465 1461 1457 1453 1449 1445 1440 1436 1432 1428 1424 1421 1417 1413 1409 1405 1401
1490 1492 1493 1494 1494 1494 1494 1493 1493 1492 1492 1491 1490 1489 1489 1488 1486 1485 1483 1481 1480 1477 1475 1473 1470 1467 1464 1460 1456 1452 1448 1444 1440 1436 1432 1427 1423 1419 1416 1412 1408 1404 1400 1396
1493 1493 1494 1494 1494 1494 1493 1492 1492 1491 1490 1489 1488 1487 1486 1485 1484 1482 1480 1478 1476 1474 1471 1469 1466 1463 1459 1456 1452 1448 1444 1440 1436 1432 1428 1423 1419 1415 1411 1408 1404 1400 1396 1392
1494 1494 1494 1494 1493 1493 1492 1491 1490 1490 1489 1487 1486 1485 1484 1483 1481 1479 1477 1475 1473 1470 1468 1465 1462 1459 1455 1452 1448 1444 1440 1436 1432 1428 1425 1420 1416 1412 1408 1405 1401 1396 1392 1388
1494 1493 1493 1493 1492 1491 1491 1490 1489 1488 1487 1486 1484 1483 1481 1480 1478 1476 1474 1472 1469 1467 1465 1462 1459 1455 1452 1448 1445 1441 1437 1434 1430 1426 1422 1418 1414 1410 1406 1402 1398 1394 1390 1386
1493 1492 1491 1491 1490 1489 1489 1488 1487 1486 1485 1483 1482 1480 1478 1477 1475 1473 1471 1469 1466 1464 1461 1459 1456 1452 1449 1446 1443 1439 1436 1432 1428 1424 1421 1417 1413 1409 1405 1401 1397 1392 1388 1384
1491 1490 1489 1489 1488 1487 1486 1485 1484 1483 1482 1480 1479 1477 1475 1473 1472 1470 1468 1466 1464 1461 1459 1456 1453 1451 1448 1445 1441 1438 1435 1431 1427 1424 1420 1416 1412 1408 1404 1400 1396 1392 1388 1384
1490 1489 1488 1487 1486 1485 1484 1483 1482 1480 1479 1477 1475 1474 1472 1470 1469 1467 1465 1463 1461 1459 1457 1454 1452 1450 1447 1444 1441 1438 1434 1431 1427 1424 1420 1417 1413 1409 1405 1401 1397 1393 1389 1384